{"data":{"norad_id":64305,"intl_designator":"2025-123Q","name":"STARLINK-34383","alt_names":[],"object_type":"PAYLOAD","status":"ACTIVE","operator":null,"country":"US","launch_date":"2025-06-08","launch_site_code":"AFWTR","launch_vehicle":null,"mission":null,"orbit_class":"UNKNOWN","rcs_meters":null,"size_class":null,"mass_kg":null,"dimensions":null,"purposes":["comms"],"wikipedia_slug":null,"has_3d_model":false,"image_url":null,"decayed_at":null,"tle_current":{"epoch":"2026-05-24T23:58:13.152576Z","epoch_age_seconds":82108,"freshness":"FRESH","line1":"1 64305U 25123Q   26144.99876334  .00002416  00000+0  21016-3 0  9992","line2":"2 64305  70.0025   2.2601 0002897 268.2166  91.8662 14.98334961 53044","mean_motion":14.98334961,"eccentricity":0.0002897,"inclination_deg":70.0025,"raan_deg":2.2601,"arg_perigee_deg":268.2166,"mean_anomaly_deg":91.8662,"bstar":0.00021016,"rev_number":5304,"period_min":96.106680914589,"perigee_km":570.02708306739,"apogee_km":574.05401593957,"semimajor_km":6950.1775495035,"source":"CELESTRAK","updated_at":"2026-05-25T13:38:20.368661Z"}}}